Location: Bacharowice
(49.9333°N, 19.5833°E)
Time: 05:33:13
(UTC+00:00)

Cosmos 1908 Rocket - Pass Details

Date: 30 September 2021
Orbit: 605 x 633 km, 82.5° (Epoch: 17 October)

Event Time Altitude Azimuth Distance (km) Brightness Sun altitude
Rises 03:52:36 0° 349° (N) 2,904 7.0 -8.5°
Reaches altitude 10° 03:54:50 10° 350° (N) 1,989 6.1 -8.1°
Maximum altitude 03:59:15 90° 252° (WSW) 619 3.6 -7.4°
Drops below altitude 10° 04:03:35 10° 172° (S) 1,958 6.2 -6.7°
Sets 04:05:47 0° 172° (S) 2,854 7.0 -6.4°
